Location: Boursonne
(49.2024°N, 3.0468°E)
Time: 21:16:40
(UTC+00:00)

SL-08 R/B - Pass Details

Date: 03 March 2021
Orbit: 949 x 1019 km, 82.9° (Epoch: 14 April)

Event Time Altitude Azimuth Distance (km) Brightness Sun altitude
Exits shadow 20:11:54 23° 181° (S) 1,988 5.9 -26.1°
Maximum altitude 20:16:07 82° 97° (E) 1,036 4.4 -26.7°
Drops below altitude 10° 20:22:37 10° 11° (N) 2,819 7.0 -27.7°
Sets 20:25:11 0° 11° (N) 3,772 7.7 -28.1°
